EST,Max TemperatureF,Mean TemperatureF,Min TemperatureF,Max Dew PointF,MeanDew PointF,Min DewpointF,Max Humidity, Mean Humidity, Min Humidity, Max Sea Level PressureIn, Mean Sea Level PressureIn, Min Sea Level PressureIn, Max VisibilityMiles, Mean VisibilityMiles, Min VisibilityMiles, Max Wind SpeedMPH, Mean Wind SpeedMPH, Max Gust SpeedMPH,PrecipitationIn, CloudCover, Events, WindDirDegrees
2014-1-1,23,21,19,18,17,14,89,85,81,30.33,30.23,30.11,10,8,1,17,9,22,0.01,8,Snow,50
2014-1-2,21,14,7,18,11,-1,93,83,70,30.26,30.02,29.93,10,2,0,31,16,41,0.03,8,Fog-Snow,21
2014-1-3,10,0,-9,1,-5,-13,86,69,58,30.50,30.39,30.24,10,10,10,14,8,,0.00,1,,230
2014-1-4,35,21,9,24,13,0,70,63,56,30.21,30.07,30.00,10,10,10,21,15,32,0.00,2,,192
2014-1-5,34,28,21,31,28,19,100,90,73,30.05,29.71,29.48,10,3,1,23,9,33,0.46,8,Snow,40
2014-1-6,21,4,-14,18,-8,-21,86,75,65,30.28,29.99,29.59,10,3,0,37,24,45,0.00,6,Snow,259
2014-1-7,5,-4,-13,-4,-12,-20,71,68,62,30.41,30.35,30.23,10,10,9,22,18,32,0.00,1,,230
2014-1-8,18,10,3,14,8,-3,86,76,70,30.52,30.41,30.34,10,9,4,12,7,,0.00,6,Snow,236
2014-1-9,30,16,3,28,15,-2,93,86,74,30.57,30.44,30.28,8,4,0,10,3,,0.00,5,Fog-Snow,106
2014-1-10,41,36,30,41,34,28,100,95,87,30.26,30.02,29.68,10,4,0,17,11,30,0.13,8,Fog-Rain-Snow,161
2014-1-11,44,38,33,45,39,29,100,95,82,29.71,29.51,29.40,10,4,0,24,13,59,0.20,8,Fog-Rain,199
2014-1-12,39,36,32,31,29,27,92,82,70,30.00,29.88,29.71,10,8,4,17,13,26,0.00,5,,214
2014-1-13,48,44,39,43,36,30,93,76,63,29.80,29.69,29.62,10,10,4,23,17,30,0.00,4,Rain,205
2014-1-14,42,35,28,34,28,20,93,79,55,29.83,29.77,29.70,10,8,4,24,11,33,0.01,5,Rain,233
2014-1-15,30,26,21,19,16,14,82,69,56,30.05,29.97,29.82,10,10,6,26,18,34,0.00,7,Snow,251
2014-1-16,30,24,17,27,21,10,96,83,68,29.99,29.76,29.68,10,5,0,24,16,31,0.04,8,Fog-Snow,194
2014-1-17,32,20,9,29,18,2,93,81,66,30.01,29.81,29.67,10,6,0,23,13,29,0.03,8,Fog-Snow,236
2014-1-18,19,10,1,18,11,-1,93,84,74,30.02,29.91,29.77,10,5,1,14,8,,0.07,6,Snow,170
2014-1-19,30,20,10,22,14,9,100,85,69,29.84,29.76,29.60,10,5,0,25,7,32,0.00,5,Fog,225
2014-1-20,36,28,18,29,24,14,93,76,62,29.96,29.79,29.57,10,10,6,22,13,28,0.00,7,Snow,291
2014-1-21,17,9,1,12,2,-9,86,73,60,30.20,30.07,29.93,10,6,1,22,16,31,0.00,7,Snow,3
2014-1-22,12,2,-9,9,0,-14,88,75,59,30.20,30.03,29.94,10,7,2,15,8,,0.00,6,Snow,202
2014-1-23,12,5,-2,8,-1,-7,88,77,70,30.55,30.26,29.94,10,9,2,24,14,,0.00,4,Snow,257
2014-1-24,19,6,-6,13,0,-11,79,69,57,30.53,30.12,29.67,10,8,2,31,17,44,0.00,4,Snow,216
2014-1-25,28,19,8,23,14,-1,89,78,62,29.82,29.52,29.37,10,4,0,29,24,43,0.00,7,Fog-Snow,246
2014-1-26,39,20,3,29,10,-4,88,76,64,29.84,29.61,29.40,10,7,0,25,14,32,0.01,6,Fog-Rain-Snow,202
2014-1-27,32,12,-8,27,2,-15,89,71,63,30.41,29.96,29.44,10,8,1,34,24,48,0.00,4,Snow,264
2014-1-28,3,-6,-14,-9,-14,-19,79,68,57,30.48,30.40,30.32,10,10,10,14,10,,0.00,0,,228
2014-1-29,16,6,-5,1,-4,-12,72,62,51,30.30,30.26,30.24,10,10,10,22,13,28,0.00,0,,222
2014-1-30,30,18,5,16,6,-3,70,59,50,30.23,30.05,29.85,10,10,10,24,14,32,0.00,2,,181
2014-1-31,33,30,28,27,21,14,92,70,51,30.15,30.08,29.92,10,8,2,17,11,,0.00,7,Snow,214